Torna al catalogo

STARLINK-36273

AttivoComunicazioniSSO
NORAD 68166·PAYLOAD·🇺🇸 United States

Lanciato Mar 13, 2026 da Vandenberg Space Force Base

Loading…

Prossimi Passaggi (prossime 24 ore)

TLE

AggiornatoSource: CelesTrak SupGP

Epoca: Sep 14, 2026, 23:11 UTC

1 68166C 26049AA  26257.96645833  .00040176  00000+0  12472-2 0  2576
2 68166  97.2841 278.8441 0001205  86.1938  78.8318 15.33418643    11

Traccia STARLINK-36273 in tempo reale con AllMySat

Download on the App Store